Find OneWeb SL0406

NORAD ID: 50486 Int'l Des: 2021-132 Owner: ONEWEBN Country: UK Constellation: oneweb operational
LEOCIRCULARPOLARONEWEB_TYPE

リアルタイム位置

3D地球を読み込み中...

OneWeb SL0406について

説明を読み込み中...

次回通過

Passes for default location (London). Set your location on the main map for personalized predictions.

高度履歴

Loading altitude history...

軌道要素

1 50486U 21132T 26126.31546797 .00000128 00000-0 29303-3 0 9992
2 50486 87.9181 343.7896 0001914 102.6161 257.5185 13.18686436216100
Epoch: May 6, 2026 • Age: 17 hours

現在のステータス

高度 1200.7 km
速度 7.25 km/s
衛星直下点 -28.29°S, 75.32°W
打ち上げ日 Dec 27, 2021
運用期間 4.3 years
タイプ internet

技術仕様

分類 Payload
質量 148.00 kg
乾燥質量 140.00 kg
総質量 148.00 kg
長さ 1.30 m
直径 1.00 m
スパン 5.00 m
形状 Trapezoid+2 pan
製造者 ONEWUS
バスタイプ ARROW
フェーズステータス In Orbit
所有者/国 ONEWEBN/UK

Most Searched